LOT269 EPWA-EHAM

Flight info

Callsign LOT269
Flight time N/A
Altitude 36000
Route LOLSI T174 INDIG DCT GOVEN DCT NORKU
Aircraft B738/M-SDE2E3FGHIRWXY/LB1

Departure

Time 2026-05-06 16:34
Airport Warsaw Chopin Airport (EPWA)

Arrival

Time N/A
Airport Amsterdam Airport Schiphol (EHAM)
Time Latitude Longitude Altitude Speed Heading
2026-05-06 16:03 52.16998 20.97142 351 ft 0 kts 72°
2026-05-06 16:22 52.16995 20.97129 351 ft 4 kts 75°
2026-05-06 16:22 52.16988 20.97087 361 ft 4 kts 73°
2026-05-06 16:22 52.16982 20.97045 358 ft 4 kts 87°
2026-05-06 16:23 52.16984 20.97004 356 ft 4 kts 114°
2026-05-06 16:23 52.16997 20.96977 361 ft 1 kts 150°
2026-05-06 16:23 52.17001 20.96974 361 ft 0 kts 150°
2026-05-06 16:27 52.17000 20.96974 351 ft 0 kts 150°
2026-05-06 16:28 52.16994 20.96980 358 ft 2 kts 150°
2026-05-06 16:28 52.16977 20.96996 353 ft 4 kts 151°
2026-05-06 16:28 52.16951 20.97019 352 ft 5 kts 151°
2026-05-06 16:28 52.16902 20.97062 353 ft 11 kts 152°
2026-05-06 16:29 52.16825 20.97131 354 ft 14 kts 151°
2026-05-06 16:29 52.16736 20.97209 355 ft 15 kts 151°
2026-05-06 16:29 52.16697 20.97244 353 ft 5 kts 151°
2026-05-06 16:29 52.16654 20.97283 356 ft 8 kts 151°
2026-05-06 16:30 52.16607 20.97322 351 ft 7 kts 153°
2026-05-06 16:30 52.16593 20.97335 357 ft 7 kts 146°
2026-05-06 16:30 52.16549 20.97460 352 ft 8 kts 114°
2026-05-06 16:30 52.16524 20.97549 354 ft 11 kts 114°
2026-05-06 16:31 52.16482 20.97703 359 ft 12 kts 114°
2026-05-06 16:31 52.16432 20.97809 353 ft 12 kts 163°
2026-05-06 16:31 52.16384 20.97786 355 ft 1 kts 206°
2026-05-06 16:31 52.16383 20.97786 355 ft 0 kts 206°
2026-05-06 16:32 52.16379 20.97782 354 ft 3 kts 206°
2026-05-06 16:32 52.16343 20.97752 353 ft 9 kts 207°
2026-05-06 16:32 52.16298 20.97706 353 ft 6 kts 244°
2026-05-06 16:33 52.16309 20.97656 356 ft 0 kts 295°
2026-05-06 16:33 52.16311 20.97648 354 ft 0 kts 294°
2026-05-06 16:33 52.16402 20.97318 353 ft 75 kts 294°
2026-05-06 16:34 52.17018 20.95031 748 ft 163 kts 291°
2026-05-06 16:34 52.17460 20.93321 1688 ft 170 kts 287°
2026-05-06 16:34 52.17975 20.91488 2296 ft 189 kts 290°
2026-05-06 16:34 52.18385 20.89365 2672 ft 207 kts 274°
2026-05-06 16:35 52.18329 20.86903 2981 ft 223 kts 259°
2026-05-06 16:35 52.18077 20.84354 3526 ft 232 kts 259°
2026-05-06 16:35 52.17927 20.80763 4127 ft 256 kts 273°
2026-05-06 16:35 52.18386 20.77853 4754 ft 269 kts 287°
2026-05-06 16:36 52.18821 20.75923 5467 ft 267 kts 286°
2026-05-06 16:36 52.19343 20.73112 6518 ft 262 kts 282°
2026-05-06 16:36 52.19616 20.70192 7409 ft 260 kts 263°
2026-05-06 16:36 52.19154 20.67366 7854 ft 257 kts 249°
2026-05-06 16:37 52.18532 20.64623 7968 ft 259 kts 249°
2026-05-06 16:37 52.17908 20.61872 8012 ft 260 kts 249°
2026-05-06 16:37 52.17282 20.59085 8541 ft 264 kts 249°
2026-05-06 16:37 52.16658 20.56290 9570 ft 261 kts 250°
2026-05-06 16:38 52.16037 20.53502 10347 ft 267 kts 249°
2026-05-06 16:38 52.15416 20.50501 10547 ft 294 kts 256°
2026-05-06 16:38 52.15318 20.47082 10743 ft 320 kts 271°
2026-05-06 16:38 52.15473 20.43338 10975 ft 341 kts 271°
2026-05-06 16:39 52.15652 20.39426 11504 ft 351 kts 271°
2026-05-06 16:39 52.15833 20.35444 12193 ft 355 kts 271°
2026-05-06 16:39 52.16010 20.31406 12928 ft 359 kts 271°
2026-05-06 16:39 52.16049 20.30488 13091 ft 360 kts 271°
2026-05-06 16:40 52.16212 20.26546 13758 ft 364 kts 270°
2026-05-06 16:41 52.16375 20.22473 14387 ft 367 kts 270°
2026-05-06 16:41 52.16538 20.18312 15075 ft 369 kts 270°
2026-05-06 16:41 52.16699 20.14125 15764 ft 371 kts 270°
2026-05-06 16:41 52.16859 20.09917 16403 ft 374 kts 269°
2026-05-06 16:42 52.17018 20.05666 17040 ft 378 kts 269°
2026-05-06 16:42 52.17175 20.01468 17628 ft 381 kts 269°
2026-05-06 16:42 52.17335 19.97138 18228 ft 384 kts 269°
2026-05-06 16:42 52.17495 19.92784 18764 ft 387 kts 269°
2026-05-06 16:43 52.17650 19.88459 19290 ft 389 kts 269°
2026-05-06 16:43 52.17595 19.84066 19804 ft 388 kts 260°
2026-05-06 16:43 52.17211 19.79706 20328 ft 390 kts 258°
2026-05-06 16:43 52.16773 19.75333 20832 ft 393 kts 258°
2026-05-06 16:44 52.16334 19.70925 21310 ft 396 kts 258°
2026-05-06 16:44 52.15907 19.66480 21782 ft 399 kts 259°
2026-05-06 16:44 52.15492 19.61999 22242 ft 402 kts 259°
2026-05-06 16:44 52.15083 19.57487 22709 ft 404 kts 259°
2026-05-06 16:45 52.14681 19.53000 23152 ft 407 kts 259°
2026-05-06 16:45 52.14271 19.48427 23561 ft 410 kts 259°
2026-05-06 16:45 52.13857 19.43830 23959 ft 411 kts 259°
2026-05-06 16:45 52.13439 19.39216 24365 ft 413 kts 259°
2026-05-06 16:46 52.13017 19.34591 24742 ft 414 kts 259°
2026-05-06 16:46 52.12587 19.29946 25132 ft 416 kts 259°
2026-05-06 16:46 52.12150 19.25287 25496 ft 417 kts 258°
2026-05-06 16:46 52.11709 19.20612 25849 ft 419 kts 258°
2026-05-06 16:47 52.11264 19.15920 26189 ft 421 kts 258°
2026-05-06 16:47 52.10822 19.11275 26518 ft 422 kts 258°
2026-05-06 16:47 52.10370 19.06545 26857 ft 424 kts 258°
2026-05-06 16:47 52.09916 19.01799 27183 ft 425 kts 258°
2026-05-06 16:48 52.09458 18.97034 27521 ft 427 kts 258°
2026-05-06 16:48 52.08998 18.92266 27882 ft 427 kts 258°
2026-05-06 16:48 52.08538 18.87507 28373 ft 425 kts 258°
2026-05-06 16:48 52.08079 18.82783 28910 ft 421 kts 257°
2026-05-06 16:49 52.07622 18.78097 29414 ft 419 kts 257°
2026-05-06 16:49 52.07170 18.73493 29838 ft 417 kts 257°
2026-05-06 16:49 52.06712 18.68847 30204 ft 416 kts 257°
2026-05-06 16:49 52.06253 18.64213 30552 ft 415 kts 257°
2026-05-06 16:50 52.05793 18.59590 30902 ft 414 kts 257°
2026-05-06 16:50 52.05332 18.54977 31261 ft 413 kts 257°
2026-05-06 16:50 52.04871 18.50375 31593 ft 412 kts 257°
2026-05-06 16:50 52.04409 18.45791 31936 ft 411 kts 257°
2026-05-06 16:51 52.03946 18.41207 32310 ft 410 kts 257°
2026-05-06 16:51 52.03483 18.36644 32622 ft 410 kts 257°
2026-05-06 16:51 52.03024 18.32132 32922 ft 410 kts 257°
2026-05-06 16:51 52.02558 18.27578 33253 ft 409 kts 257°
2026-05-06 16:52 52.02091 18.23032 33589 ft 408 kts 257°
2026-05-06 16:52 52.01624 18.18496 33882 ft 407 kts 257°
2026-05-06 16:52 52.01156 18.13968 34093 ft 408 kts 257°
2026-05-06 16:52 52.00684 18.09420 34276 ft 409 kts 257°
2026-05-06 16:53 52.00209 18.04868 34490 ft 409 kts 257°
2026-05-06 16:53 51.99798 18.00289 34708 ft 411 kts 262°
2026-05-06 16:53 51.99761 17.95634 34897 ft 416 kts 269°
2026-05-06 16:53 51.99925 17.90954 35112 ft 416 kts 269°
2026-05-06 16:54 52.00090 17.86328 35342 ft 416 kts 269°
2026-05-06 16:54 52.00254 17.81626 35516 ft 418 kts 269°
2026-05-06 16:54 52.00411 17.76924 35723 ft 418 kts 269°
2026-05-06 16:54 52.00563 17.72214 35939 ft 418 kts 269°
2026-05-06 16:55 52.00708 17.67507 36126 ft 418 kts 269°
2026-05-06 16:55 52.00849 17.62792 36318 ft 418 kts 269°
2026-05-06 16:55 52.00988 17.58073 36519 ft 419 kts 269°
2026-05-06 16:55 52.01124 17.53357 36704 ft 419 kts 269°
2026-05-06 16:56 52.01256 17.48695 36880 ft 420 kts 269°
2026-05-06 16:56 52.01388 17.43958 37042 ft 420 kts 269°
2026-05-06 16:56 52.01519 17.39211 37230 ft 421 kts 269°
2026-05-06 16:56 52.01648 17.34470 37442 ft 421 kts 269°
2026-05-06 16:57 52.01775 17.29731 37621 ft 421 kts 269°
2026-05-06 16:57 52.01901 17.24981 37765 ft 422 kts 269°
2026-05-06 16:57 52.02024 17.20209 37759 ft 424 kts 269°
2026-05-06 16:58 52.02265 17.10728 37771 ft 422 kts 269°
2026-05-06 16:58 52.02500 17.01248 37774 ft 419 kts 269°
2026-05-06 16:59 52.02724 16.91819 37760 ft 417 kts 269°
2026-05-06 16:59 52.02934 16.82692 37800 ft 416 kts 268°
2026-05-06 17:00 52.03142 16.73273 37782 ft 418 kts 268°
2026-05-06 17:00 52.03342 16.63918 37796 ft 418 kts 268°
2026-05-06 17:01 52.03537 16.54486 37800 ft 418 kts 268°
2026-05-06 17:01 52.03724 16.45028 37795 ft 419 kts 268°
2026-05-06 17:02 52.03904 16.35550 37821 ft 420 kts 268°
2026-05-06 17:02 52.04075 16.26189 37812 ft 422 kts 268°
2026-05-06 17:03 52.04241 16.16655 37800 ft 423 kts 268°
2026-05-06 17:03 52.04399 16.07098 37810 ft 423 kts 267°
2026-05-06 17:04 52.04551 15.97529 37812 ft 424 kts 267°
2026-05-06 17:04 52.04694 15.87952 37802 ft 424 kts 267°
2026-05-06 17:05 52.04829 15.78428 37809 ft 425 kts 267°
2026-05-06 17:05 52.04958 15.68828 37808 ft 425 kts 267°
2026-05-06 17:06 52.05078 15.59218 37801 ft 425 kts 267°
2026-05-06 17:06 52.05191 15.49614 37804 ft 425 kts 267°
2026-05-06 17:07 52.05296 15.40081 37804 ft 425 kts 267°
2026-05-06 17:07 52.05393 15.30490 37807 ft 425 kts 267°
2026-05-06 17:08 52.05482 15.20893 37808 ft 424 kts 267°
2026-05-06 17:08 52.05564 15.11313 37811 ft 424 kts 267°
2026-05-06 17:09 52.05594 15.07496 37809 ft 424 kts 267°
2026-05-06 17:10 52.05652 14.99680 37802 ft 424 kts 266°
2026-05-06 17:10 52.05717 14.90099 37803 ft 424 kts 266°
2026-05-06 17:10 52.05747 14.85308 37679 ft 424 kts 268°
2026-05-06 17:11 52.05774 14.80602 37744 ft 421 kts 269°
2026-05-06 17:11 52.05968 14.71127 37805 ft 419 kts 272°
2026-05-06 17:12 52.06468 14.61694 37814 ft 419 kts 273°
2026-05-06 17:12 52.06995 14.52276 37810 ft 418 kts 272°
2026-05-06 17:13 52.07494 14.42873 37817 ft 417 kts 272°
2026-05-06 17:13 52.07969 14.33543 37806 ft 417 kts 272°
2026-05-06 17:14 52.08433 14.24154 37812 ft 417 kts 272°
2026-05-06 17:14 52.08889 14.14758 37813 ft 417 kts 272°
2026-05-06 17:15 52.09338 14.05361 37817 ft 417 kts 272°
2026-05-06 17:15 52.09780 13.95950 37816 ft 418 kts 272°
2026-05-06 17:16 52.10212 13.86588 37845 ft 418 kts 272°
2026-05-06 17:16 52.10641 13.77138 37818 ft 419 kts 272°
2026-05-06 17:17 52.11063 13.67677 37827 ft 420 kts 271°
2026-05-06 17:17 52.11478 13.58204 37821 ft 420 kts 271°
2026-05-06 17:18 52.11885 13.48715 37828 ft 420 kts 271°
2026-05-06 17:18 52.12283 13.39288 37824 ft 421 kts 271°
2026-05-06 17:19 52.12675 13.29788 37835 ft 421 kts 271°
2026-05-06 17:19 52.13061 13.20277 37816 ft 422 kts 271°
2026-05-06 17:20 52.13439 13.10755 37822 ft 421 kts 271°
2026-05-06 17:20 52.13806 13.01308 37806 ft 421 kts 271°
2026-05-06 17:21 52.14169 12.91793 37808 ft 421 kts 271°
2026-05-06 17:21 52.14524 12.82270 37815 ft 421 kts 271°
2026-05-06 17:22 52.14871 12.72750 37812 ft 421 kts 271°
2026-05-06 17:22 52.15211 12.63219 37808 ft 421 kts 270°
2026-05-06 17:23 52.15530 12.54067 37811 ft 422 kts 270°
2026-05-06 17:23 52.15853 12.44596 37809 ft 422 kts 270°
2026-05-06 17:24 52.16167 12.35144 37816 ft 422 kts 270°
2026-05-06 17:24 52.16477 12.25608 37813 ft 423 kts 270°
2026-05-06 17:25 52.16780 12.16037 37813 ft 423 kts 270°
2026-05-06 17:25 52.17074 12.06507 37805 ft 424 kts 270°
2026-05-06 17:26 52.17362 11.96912 37808 ft 424 kts 270°
2026-05-06 17:26 52.17643 11.87300 37818 ft 425 kts 270°
2026-05-06 17:27 52.17916 11.77671 37814 ft 426 kts 270°
2026-05-06 17:27 52.18182 11.68025 37788 ft 426 kts 270°
2026-05-06 17:28 52.18440 11.58376 37803 ft 427 kts 270°
2026-05-06 17:28 52.18691 11.48717 37797 ft 427 kts 270°
2026-05-06 17:29 52.18934 11.39041 37813 ft 427 kts 270°
2026-05-06 17:29 52.19168 11.29418 37797 ft 428 kts 270°
2026-05-06 17:30 52.19395 11.19720 37803 ft 429 kts 269°
2026-05-06 17:30 52.19616 11.10002 37797 ft 430 kts 269°
2026-05-06 17:31 52.19828 11.00266 37805 ft 430 kts 269°
2026-05-06 17:31 52.20031 10.90589 37811 ft 430 kts 269°
2026-05-06 17:32 52.20228 10.80835 37822 ft 431 kts 269°
2026-05-06 17:32 52.20418 10.71074 37818 ft 431 kts 269°
2026-05-06 17:33 52.20599 10.61306 37834 ft 431 kts 269°
2026-05-06 17:33 52.20772 10.51542 37825 ft 431 kts 269°
2026-05-06 17:34 52.20935 10.41848 37829 ft 431 kts 269°
2026-05-06 17:34 52.21092 10.32085 37826 ft 431 kts 269°
2026-05-06 17:35 52.21241 10.22313 37814 ft 431 kts 269°
2026-05-06 17:35 52.21382 10.12529 37804 ft 431 kts 269°
2026-05-06 17:36 52.21577 9.97931 37818 ft 431 kts 269°
2026-05-06 17:36 52.21698 9.88154 37925 ft 432 kts 268°
2026-05-06 17:37 52.21811 9.78322 37833 ft 435 kts 268°
2026-05-06 17:37 52.21916 9.68445 37817 ft 436 kts 268°
2026-05-06 17:38 52.22013 9.58599 37826 ft 438 kts 268°
2026-05-06 17:38 52.22103 9.48658 37817 ft 439 kts 268°
2026-05-06 17:39 52.22185 9.38675 37834 ft 441 kts 268°
2026-05-06 17:39 52.22258 9.28664 37827 ft 442 kts 268°
2026-05-06 17:40 52.22323 9.18650 37835 ft 442 kts 268°
2026-05-06 17:40 52.22380 9.08629 37822 ft 442 kts 268°
2026-05-06 17:41 52.22428 8.98691 37834 ft 441 kts 268°
2026-05-06 17:41 52.22467 8.88711 37848 ft 440 kts 268°
2026-05-06 17:42 52.22498 8.78734 37831 ft 439 kts 268°